NGN10Y EDDE-EYVI

Flight info

Callsign NGN10Y
Flight time 1h 25m
Altitude 37000
Route LASTO1C LASTO M726 MITRU N858 TUROL
Aircraft A320/M-SDE3FGHIRWY/LB1

Departure

Time 2026-05-07 12:14
Airport Erfurt-Weimar Airport (EDDE)

Arrival

Time 2026-05-07 13:39
Airport Vilnius International Airport (EYVI)
Time Latitude Longitude Altitude Speed Heading
2026-05-07 11:54 50.97576 10.96133 1028 ft 0 kts 238°
2026-05-07 12:05 50.97581 10.96146 1024 ft 2 kts 238°
2026-05-07 12:05 50.97590 10.96168 1027 ft 2 kts 238°
2026-05-07 12:06 50.97597 10.96191 1028 ft 2 kts 263°
2026-05-07 12:06 50.97599 10.96217 1027 ft 2 kts 263°
2026-05-07 12:06 50.97601 10.96243 1028 ft 2 kts 263°
2026-05-07 12:06 50.97603 10.96269 1027 ft 2 kts 263°
2026-05-07 12:07 50.97604 10.96294 1027 ft 2 kts 263°
2026-05-07 12:07 50.97606 10.96315 1027 ft 0 kts 263°
2026-05-07 12:08 50.97606 10.96313 1027 ft 1 kts 263°
2026-05-07 12:09 50.97615 10.96274 1026 ft 7 kts 295°
2026-05-07 12:09 50.97670 10.96251 1028 ft 11 kts
2026-05-07 12:09 50.97736 10.96177 1026 ft 14 kts 282°
2026-05-07 12:09 50.97748 10.96024 1027 ft 14 kts 276°
2026-05-07 12:10 50.97763 10.95869 1028 ft 14 kts 279°
2026-05-07 12:10 50.97777 10.95709 1029 ft 15 kts 277°
2026-05-07 12:10 50.97788 10.95547 1029 ft 15 kts 276°
2026-05-07 12:10 50.97800 10.95388 1029 ft 14 kts 277°
2026-05-07 12:11 50.97813 10.95236 1027 ft 13 kts 277°
2026-05-07 12:11 50.97825 10.95095 1028 ft 13 kts 277°
2026-05-07 12:11 50.97838 10.94956 1030 ft 14 kts 287°
2026-05-07 12:11 50.97894 10.94792 1031 ft 19 kts 288°
2026-05-07 12:12 50.97913 10.94559 1031 ft 22 kts 278°
2026-05-07 12:12 50.97935 10.94323 1030 ft 22 kts 277°
2026-05-07 12:12 50.97987 10.94148 1028 ft 16 kts 332°
2026-05-07 12:12 50.98066 10.94031 1027 ft 16 kts 323°
2026-05-07 12:13 50.98137 10.94056 1026 ft 5 kts 64°
2026-05-07 12:13 50.98126 10.94092 1024 ft 5 kts 135°
2026-05-07 12:13 50.98112 10.94186 1029 ft 20 kts 96°
2026-05-07 12:13 50.98067 10.94747 1032 ft 83 kts 96°
2026-05-07 12:14 50.97971 10.95943 1027 ft 133 kts 97°
2026-05-07 12:14 50.97841 10.97593 1194 ft 159 kts 96°
2026-05-07 12:14 50.97648 10.99326 1857 ft 159 kts 98°
2026-05-07 12:14 50.97436 11.01048 2566 ft 159 kts 99°
2026-05-07 12:15 50.97214 11.02813 3014 ft 172 kts 99°
2026-05-07 12:15 50.96980 11.04773 3367 ft 189 kts 99°
2026-05-07 12:15 50.96740 11.06892 3750 ft 202 kts 98°
2026-05-07 12:15 50.96493 11.09198 4007 ft 225 kts 98°
2026-05-07 12:16 50.96248 11.11748 4435 ft 244 kts 97°
2026-05-07 12:16 50.96090 11.14463 5153 ft 251 kts 83°
2026-05-07 12:16 50.96734 11.16991 5889 ft 252 kts 46°
2026-05-07 12:16 50.98184 11.18501 6648 ft 252 kts 20°
2026-05-07 12:17 50.99872 11.19224 7460 ft 252 kts
2026-05-07 12:17 51.01619 11.18968 8183 ft 259 kts 345°
2026-05-07 12:17 51.03349 11.17893 8663 ft 273 kts 333°
2026-05-07 12:17 51.05087 11.16593 9387 ft 279 kts 335°
2026-05-07 12:18 51.06869 11.15310 10127 ft 284 kts 336°
2026-05-07 12:18 51.08734 11.13990 10455 ft 304 kts 336°
2026-05-07 12:18 51.10737 11.12597 10748 ft 322 kts 339°
2026-05-07 12:18 51.12929 11.11736 11337 ft 328 kts 354°
2026-05-07 12:19 51.15226 11.11804 11982 ft 333 kts
2026-05-07 12:19 51.17517 11.12501 12651 ft 337 kts 11°
2026-05-07 12:19 51.19801 11.13218 13328 ft 341 kts 11°
2026-05-07 12:19 51.22141 11.13949 13980 ft 345 kts 10°
2026-05-07 12:20 51.24509 11.14707 14605 ft 349 kts 13°
2026-05-07 12:20 51.26794 11.16050 15191 ft 353 kts 27°
2026-05-07 12:20 51.28840 11.18245 15798 ft 357 kts 41°
2026-05-07 12:20 51.30513 11.21182 16404 ft 360 kts 54°
2026-05-07 12:21 51.31720 11.24698 17017 ft 363 kts 66°
2026-05-07 12:21 51.32853 11.28319 17633 ft 366 kts 58°
2026-05-07 12:21 51.34257 11.31732 18270 ft 369 kts 56°
2026-05-07 12:21 51.35199 11.34002 18648 ft 370 kts 56°
2026-05-07 12:22 51.37114 11.38614 19386 ft 374 kts 56°
2026-05-07 12:22 51.38088 11.40962 19777 ft 376 kts 56°
2026-05-07 12:22 51.39521 11.44422 20356 ft 378 kts 56°
2026-05-07 12:22 51.40979 11.47947 20931 ft 381 kts 56°
2026-05-07 12:23 51.42449 11.51500 21491 ft 384 kts 56°
2026-05-07 12:23 51.43926 11.55081 22042 ft 387 kts 56°
2026-05-07 12:23 51.45417 11.58695 22599 ft 390 kts 56°
2026-05-07 12:23 51.46915 11.62334 23129 ft 393 kts 56°
2026-05-07 12:24 51.48426 11.66012 23633 ft 396 kts 56°
2026-05-07 12:24 51.49943 11.69719 24064 ft 398 kts 56°
2026-05-07 12:24 51.51469 11.73450 24498 ft 400 kts 56°
2026-05-07 12:24 51.52999 11.77192 24941 ft 402 kts 57°
2026-05-07 12:25 51.54535 11.80953 25388 ft 404 kts 57°
2026-05-07 12:25 51.56077 11.84738 25861 ft 406 kts 57°
2026-05-07 12:25 51.57624 11.88542 26318 ft 408 kts 57°
2026-05-07 12:25 51.59183 11.92374 26758 ft 410 kts 57°
2026-05-07 12:26 51.60749 11.96232 27158 ft 412 kts 57°
2026-05-07 12:26 51.62319 12.00104 27545 ft 414 kts 57°
2026-05-07 12:26 51.63881 12.04017 27911 ft 416 kts 60°
2026-05-07 12:26 51.65210 12.08171 28275 ft 418 kts 64°
2026-05-07 12:27 51.66481 12.12329 28638 ft 420 kts 64°
2026-05-07 12:27 51.67789 12.16621 29010 ft 423 kts 64°
2026-05-07 12:27 51.69085 12.20887 29366 ft 425 kts 64°
2026-05-07 12:27 51.70385 12.25176 29715 ft 427 kts 64°
2026-05-07 12:28 51.71692 12.29493 30058 ft 429 kts 64°
2026-05-07 12:28 51.72987 12.33777 30343 ft 432 kts 64°
2026-05-07 12:28 51.74307 12.38151 30614 ft 435 kts 65°
2026-05-07 12:28 51.75631 12.42550 30863 ft 437 kts 65°
2026-05-07 12:29 51.76964 12.46979 31199 ft 438 kts 65°
2026-05-07 12:29 51.78300 12.51409 31522 ft 439 kts 65°
2026-05-07 12:29 51.79641 12.55851 31828 ft 441 kts 65°
2026-05-07 12:29 51.80984 12.60316 32145 ft 443 kts 65°
2026-05-07 12:30 51.82329 12.64802 32467 ft 444 kts 65°
2026-05-07 12:30 51.83677 12.69306 32811 ft 445 kts 65°
2026-05-07 12:30 51.85025 12.73825 33185 ft 446 kts 65°
2026-05-07 12:30 51.86370 12.78351 33538 ft 447 kts 65°
2026-05-07 12:31 51.87720 12.82898 33875 ft 449 kts 65°
2026-05-07 12:31 51.89071 12.87452 34159 ft 450 kts 65°
2026-05-07 12:31 51.90426 12.92030 34430 ft 451 kts 65°
2026-05-07 12:31 51.91782 12.96609 34709 ft 451 kts 65°
2026-05-07 12:32 51.93138 13.01199 34979 ft 452 kts 66°
2026-05-07 12:32 51.94494 13.05803 35234 ft 453 kts 66°
2026-05-07 12:32 51.95846 13.10413 35495 ft 453 kts 66°
2026-05-07 12:32 51.97194 13.15027 35751 ft 454 kts 66°
2026-05-07 12:33 51.99903 13.24285 36261 ft 454 kts 66°
2026-05-07 12:33 52.01258 13.28920 36502 ft 455 kts 66°
2026-05-07 12:33 52.02611 13.33568 36745 ft 455 kts 66°
2026-05-07 12:34 52.03945 13.38161 36955 ft 456 kts 66°
2026-05-07 12:34 52.05299 13.42826 37028 ft 457 kts 66°
2026-05-07 12:34 52.08010 13.52201 37033 ft 459 kts 66°
2026-05-07 12:35 52.10713 13.61600 37037 ft 459 kts 67°
2026-05-07 12:35 52.13408 13.71015 37038 ft 459 kts 67°
2026-05-07 12:36 52.16105 13.80443 37037 ft 460 kts 67°
2026-05-07 12:36 52.18797 13.89890 37033 ft 460 kts 67°
2026-05-07 12:37 52.21480 13.99364 37031 ft 460 kts 68°
2026-05-07 12:37 52.24149 14.08851 37033 ft 460 kts 68°
2026-05-07 12:38 52.26816 14.18356 37030 ft 460 kts 68°
2026-05-07 12:38 52.29478 14.27869 37034 ft 460 kts 68°
2026-05-07 12:39 52.32135 14.37411 37033 ft 461 kts 68°
2026-05-07 12:39 52.34781 14.46959 37032 ft 461 kts 68°
2026-05-07 12:40 52.37401 14.56466 37032 ft 461 kts 68°
2026-05-07 12:40 52.40530 14.65676 37031 ft 463 kts 62°
2026-05-07 12:41 52.43794 14.74788 37029 ft 463 kts 62°
2026-05-07 12:41 52.47053 14.83919 37036 ft 464 kts 62°
2026-05-07 12:42 52.50295 14.93061 37030 ft 464 kts 62°
2026-05-07 12:42 52.53532 15.02228 37034 ft 464 kts 62°
2026-05-07 12:43 52.56766 15.11402 37034 ft 464 kts 62°
2026-05-07 12:43 52.60001 15.20590 37040 ft 464 kts 62°
2026-05-07 12:44 52.63206 15.29747 37035 ft 464 kts 62°
2026-05-07 12:44 52.66428 15.38985 37030 ft 465 kts 62°
2026-05-07 12:45 52.69645 15.48240 37028 ft 465 kts 62°
2026-05-07 12:45 52.72853 15.57508 37032 ft 465 kts 63°
2026-05-07 12:46 52.76051 15.66786 37037 ft 465 kts 63°
2026-05-07 12:46 52.79224 15.76032 37036 ft 465 kts 63°
2026-05-07 12:47 52.82266 15.85467 37031 ft 463 kts 70°
2026-05-07 12:47 52.84760 15.95293 37031 ft 463 kts 70°
2026-05-07 12:48 52.87257 16.05135 37030 ft 464 kts 70°
2026-05-07 12:48 52.89749 16.14995 37033 ft 464 kts 70°
2026-05-07 12:49 52.92230 16.24870 37030 ft 465 kts 70°
2026-05-07 12:49 52.94707 16.34776 37036 ft 465 kts 70°
2026-05-07 12:50 52.97181 16.44704 37033 ft 466 kts 70°
2026-05-07 12:50 52.99651 16.54654 37034 ft 466 kts 70°
2026-05-07 12:51 53.02116 16.64616 37035 ft 467 kts 70°
2026-05-07 12:51 53.04566 16.74593 37031 ft 467 kts 70°
2026-05-07 12:52 53.07010 16.84594 37030 ft 467 kts 70°
2026-05-07 12:52 53.09446 16.94610 37025 ft 467 kts 70°
2026-05-07 12:53 53.11879 17.04642 37023 ft 468 kts 70°
2026-05-07 12:53 53.14295 17.14631 37019 ft 468 kts 71°
2026-05-07 12:54 53.16731 17.24780 37023 ft 469 kts 71°
2026-05-07 12:54 53.19129 17.34827 37019 ft 470 kts 71°
2026-05-07 12:55 53.21541 17.44964 37022 ft 470 kts 71°
2026-05-07 12:55 53.23954 17.55104 37020 ft 470 kts 71°
2026-05-07 12:56 53.26352 17.65282 37018 ft 471 kts 71°
2026-05-07 12:56 53.28738 17.75478 37015 ft 471 kts 71°
2026-05-07 12:57 53.31121 17.85694 37014 ft 472 kts 71°
2026-05-07 12:57 53.33502 17.95918 37013 ft 472 kts 71°
2026-05-07 12:58 53.35876 18.06170 37012 ft 473 kts 71°
2026-05-07 12:58 53.38238 18.16449 37014 ft 473 kts 72°
2026-05-07 12:59 53.40588 18.26748 37021 ft 473 kts 72°
2026-05-07 12:59 53.42914 18.37009 37021 ft 474 kts 72°
2026-05-07 13:00 53.45244 18.47350 37019 ft 474 kts 72°
2026-05-07 13:00 53.47567 18.57702 37021 ft 474 kts 72°
2026-05-07 13:01 53.49878 18.68072 37021 ft 474 kts 72°
2026-05-07 13:01 53.52177 18.78457 37021 ft 474 kts 72°
2026-05-07 13:02 53.54386 18.88904 37022 ft 474 kts 74°
2026-05-07 13:02 53.56488 18.99412 37017 ft 474 kts 74°
2026-05-07 13:03 53.58581 19.09931 37015 ft 474 kts 74°
2026-05-07 13:03 53.60697 19.20463 37014 ft 475 kts 74°
2026-05-07 13:04 53.62822 19.31002 37015 ft 475 kts 74°
2026-05-07 13:04 53.64927 19.41516 37000 ft 475 kts 74°
2026-05-07 13:05 53.67025 19.52095 37007 ft 476 kts 74°
2026-05-07 13:05 53.69114 19.62688 37012 ft 476 kts 74°
2026-05-07 13:06 53.71191 19.73298 37005 ft 476 kts 75°
2026-05-07 13:06 53.73244 19.83840 37006 ft 476 kts 75°
2026-05-07 13:07 53.75303 19.94463 37003 ft 476 kts 75°
2026-05-07 13:07 53.77351 20.05097 36999 ft 476 kts 75°
2026-05-07 13:08 53.79387 20.15747 36998 ft 476 kts 75°
2026-05-07 13:08 53.81416 20.26416 36995 ft 476 kts 75°
2026-05-07 13:09 53.83098 20.35282 36995 ft 476 kts 75°
2026-05-07 13:09 53.85107 20.45954 36988 ft 476 kts 75°
2026-05-07 13:10 53.86981 20.56699 36988 ft 475 kts 78°
2026-05-07 13:10 53.88579 20.67543 36988 ft 474 kts 80°
2026-05-07 13:11 53.90102 20.78428 36988 ft 474 kts 80°
2026-05-07 13:11 53.91666 20.89304 36987 ft 475 kts 79°
2026-05-07 13:12 53.93263 21.00184 36985 ft 475 kts 79°
2026-05-07 13:12 53.94856 21.11077 36980 ft 475 kts 79°
2026-05-07 13:13 53.96418 21.21970 36989 ft 475 kts 79°
2026-05-07 13:13 53.97967 21.32888 36968 ft 475 kts 79°
2026-05-07 13:14 53.99512 21.43802 36976 ft 475 kts 79°
2026-05-07 13:14 54.01057 21.54726 36963 ft 475 kts 79°
2026-05-07 13:15 54.02576 21.65596 36970 ft 475 kts 80°
2026-05-07 13:15 54.04088 21.76536 36434 ft 474 kts 80°
2026-05-07 13:16 54.04843 21.82008 35796 ft 476 kts 80°
2026-05-07 13:16 54.05597 21.87493 35289 ft 475 kts 81°
2026-05-07 13:16 54.06345 21.92950 34823 ft 473 kts 81°
2026-05-07 13:16 54.07087 21.98393 34345 ft 471 kts 81°
2026-05-07 13:17 54.07825 22.03814 33885 ft 469 kts 82°
2026-05-07 13:17 54.08560 22.09219 33362 ft 467 kts 81°
2026-05-07 13:17 54.09289 22.14606 32867 ft 464 kts 81°
2026-05-07 13:17 54.10003 22.19947 32405 ft 461 kts 81°
2026-05-07 13:18 54.10709 22.25261 31955 ft 458 kts 81°
2026-05-07 13:18 54.11411 22.30540 31515 ft 455 kts 81°
2026-05-07 13:18 54.12111 22.35790 31088 ft 453 kts 81°
2026-05-07 13:18 54.12805 22.41013 30672 ft 450 kts 81°
2026-05-07 13:19 54.13493 22.46206 30270 ft 447 kts 81°
2026-05-07 13:19 54.14165 22.51302 29868 ft 445 kts 81°
2026-05-07 13:19 54.14837 22.56436 29430 ft 442 kts 81°
2026-05-07 13:19 54.15501 22.61535 29030 ft 439 kts 81°
2026-05-07 13:20 54.16160 22.66603 28643 ft 436 kts 81°
2026-05-07 13:20 54.16811 22.71632 28274 ft 432 kts 81°
2026-05-07 13:20 54.17456 22.76625 27910 ft 429 kts 81°
2026-05-07 13:20 54.18094 22.81580 27565 ft 426 kts 81°
2026-05-07 13:21 54.18729 22.86509 27216 ft 423 kts 81°
2026-05-07 13:21 54.19355 22.91404 26863 ft 420 kts 81°
2026-05-07 13:21 54.19975 22.96267 26511 ft 417 kts 81°
2026-05-07 13:21 54.20590 23.01101 26163 ft 414 kts 81°
2026-05-07 13:22 54.21198 23.05898 25796 ft 412 kts 81°
2026-05-07 13:22 54.21800 23.10668 25451 ft 409 kts 81°
2026-05-07 13:22 54.22393 23.15395 25087 ft 406 kts 81°
2026-05-07 13:22 54.22981 23.20095 24732 ft 403 kts 81°
2026-05-07 13:23 54.23567 23.24761 24374 ft 400 kts 81°
2026-05-07 13:23 54.24148 23.29416 24014 ft 397 kts 81°
2026-05-07 13:23 54.24713 23.33991 23382 ft 391 kts 81°
2026-05-07 13:23 54.25270 23.38519 22613 ft 387 kts 81°
2026-05-07 13:24 54.25821 23.43003 21881 ft 383 kts 81°
2026-05-07 13:24 54.26357 23.47379 21169 ft 379 kts 81°
2026-05-07 13:24 54.26900 23.51823 20458 ft 375 kts 81°
2026-05-07 13:24 54.27427 23.56163 19779 ft 371 kts 81°
2026-05-07 13:25 54.27946 23.60417 19205 ft 370 kts 81°
2026-05-07 13:25 54.28475 23.64768 18850 ft 367 kts 81°
2026-05-07 13:25 54.28992 23.69032 18497 ft 365 kts 81°
2026-05-07 13:25 54.29495 23.73216 18139 ft 363 kts 81°
2026-05-07 13:26 54.30003 23.77436 17737 ft 361 kts 81°
2026-05-07 13:26 54.30506 23.81640 17349 ft 358 kts 81°
2026-05-07 13:26 54.31001 23.85808 16968 ft 356 kts 81°
2026-05-07 13:26 54.31492 23.89951 16601 ft 354 kts 81°
2026-05-07 13:27 54.31981 23.94072 16247 ft 351 kts 81°
2026-05-07 13:27 54.32465 23.98162 15880 ft 349 kts 81°
2026-05-07 13:27 54.32945 24.02225 15523 ft 347 kts 81°
2026-05-07 13:27 54.33420 24.06271 15172 ft 345 kts 81°
2026-05-07 13:28 54.33890 24.10296 14836 ft 343 kts 81°
2026-05-07 13:28 54.34354 24.14289 14500 ft 341 kts 81°
2026-05-07 13:28 54.34812 24.18260 14171 ft 339 kts 81°
2026-05-07 13:28 54.35269 24.22208 13844 ft 337 kts 81°
2026-05-07 13:29 54.35722 24.26126 13389 ft 332 kts 81°
2026-05-07 13:29 54.36170 24.29994 12715 ft 330 kts 81°
2026-05-07 13:29 54.36606 24.33787 12061 ft 327 kts 81°
2026-05-07 13:29 54.37043 24.37597 11447 ft 324 kts 81°
2026-05-07 13:30 54.37478 24.41375 10837 ft 321 kts 81°
2026-05-07 13:30 54.37910 24.45116 10257 ft 320 kts 81°
2026-05-07 13:30 54.38337 24.48851 9982 ft 317 kts 81°
2026-05-07 13:30 54.38754 24.52540 9681 ft 314 kts 81°
2026-05-07 13:31 54.39168 24.56205 9341 ft 312 kts 81°
2026-05-07 13:31 54.39580 24.59850 9012 ft 310 kts 81°
2026-05-07 13:31 54.39979 24.63402 8675 ft 309 kts 81°
2026-05-07 13:31 54.40388 24.67077 8348 ft 307 kts 81°
2026-05-07 13:32 54.40787 24.70663 8031 ft 306 kts 81°
2026-05-07 13:32 54.41186 24.74240 7693 ft 304 kts 81°
2026-05-07 13:32 54.41580 24.77798 7373 ft 303 kts 81°
2026-05-07 13:32 54.41971 24.81338 7100 ft 299 kts 81°
2026-05-07 13:33 54.42353 24.84798 6977 ft 291 kts 81°
2026-05-07 13:33 54.42723 24.88159 6845 ft 280 kts 82°
2026-05-07 13:33 54.43075 24.91343 6716 ft 263 kts 82°
2026-05-07 13:33 54.43411 24.94383 6405 ft 256 kts 81°
2026-05-07 13:34 54.43738 24.97375 5975 ft 254 kts 81°
2026-05-07 13:34 54.44379 25.03293 5101 ft 249 kts 81°
2026-05-07 13:34 54.44693 25.06210 4682 ft 247 kts 81°
2026-05-07 13:35 54.45004 25.09089 4257 ft 244 kts 81°
2026-05-07 13:35 54.45310 25.11929 3868 ft 241 kts 80°
2026-05-07 13:35 54.45746 25.14691 3582 ft 239 kts 62°
2026-05-07 13:35 54.46779 25.16864 3285 ft 234 kts 34°
2026-05-07 13:36 54.48213 25.18110 3039 ft 231 kts 18°
2026-05-07 13:36 54.49663 25.19096 2991 ft 220 kts 18°
2026-05-07 13:36 54.51060 25.20051 2988 ft 213 kts 18°
2026-05-07 13:36 54.52420 25.20985 2727 ft 208 kts 19°
2026-05-07 13:37 54.53722 25.21883 2455 ft 195 kts 18°
2026-05-07 13:37 54.54931 25.22718 2213 ft 180 kts 18°
2026-05-07 13:37 54.56016 25.23467 2000 ft 157 kts 18°
2026-05-07 13:37 54.56980 25.24133 1787 ft 143 kts 18°
2026-05-07 13:38 54.57891 25.24760 1599 ft 138 kts 18°
2026-05-07 13:38 54.58778 25.25373 1414 ft 138 kts 18°
2026-05-07 13:38 54.59668 25.25987 1169 ft 136 kts 18°
2026-05-07 13:38 54.60527 25.26614 1024 ft 134 kts 18°
2026-05-07 13:39 54.61391 25.27198 842 ft 132 kts 18°
2026-05-07 13:39 54.62237 25.27762 675 ft 127 kts 18°
2026-05-07 13:39 54.62967 25.28254 603 ft 84 kts 21°
2026-05-07 13:39 54.63225 25.28434 606 ft 0 kts 22°
2026-05-07 13:40 54.63253 25.28455 607 ft 9 kts 22°
2026-05-07 13:40 54.63337 25.28513 609 ft 17 kts 22°
2026-05-07 13:40 54.63432 25.28492 614 ft 15 kts 299°
2026-05-07 13:40 54.63519 25.28390 621 ft 16 kts 349°
2026-05-07 13:41 54.63624 25.28358 617 ft 15 kts 350°
2026-05-07 13:41 54.63721 25.28323 626 ft 14 kts 347°
2026-05-07 13:41 54.63805 25.28287 627 ft 12 kts 347°
2026-05-07 13:41 54.63880 25.28258 635 ft 11 kts 348°
2026-05-07 13:42 54.63960 25.28228 636 ft 14 kts 347°
2026-05-07 13:42 54.64058 25.28191 640 ft 15 kts 347°
2026-05-07 13:42 54.64162 25.28183 637 ft 16 kts 35°
2026-05-07 13:42 54.64235 25.28202 639 ft 7 kts 359°
2026-05-07 13:43 54.64239 25.28202 639 ft 0 kts 359°